Location: Sungai Juaw
(2.6833°N, 113.5333°E)
Time: 23:14:17
(UTC+00:00)

Ariane H10+ - Pass Details

Date: 04 August 2024
Orbit: 356 x 33958 km, 7.2° (Epoch: 20 September)

Event Time Altitude Azimuth Distance (km) Brightness Sun altitude
Exits shadow 18:57:23 26° 79° (E) 2,337 4.7 -49.1°
Drops below altitude 10° 19:03:43 10° 82° (E) 5,345 6.8 -47.7°
Sets 19:14:10 0° 83° (E) 9,663 8.3 -45.4°
